Home > Weather > Lafayette > Past weeks

Flag for USA Past Weather in Lafayette, Indiana, USA — Yesterday and Last 2 Weeks

Now
78 °F

Passing clouds.


Feels Like: 81 °F
Forecast: 71 / 82 °F
Wind: 3 mph from Southeast

Location: Purdue University Airport

Current Time: Aug 27, 2016 at 1:14:34 PM

Latest Report: Aug 27, 2016 at 11:54 AM


Visibility: 10 mi

Pressure: 30.08 "Hg

Humidity: 84%

Dew Point: 73 °F

Location of LafayetteLocation

Past Weather in Lafayette — Graph

°F

Lafayette Temperature Yesterday

Maximum temperature yesterday: 84 °F (at 2:54 PM)
Minimum temperature yesterday: 69 °F (at 3:01 AM)
Average temperature yesterday: 75 °F

High & Low Weather Summary for the Past Weeks

 TemperatureHumidityPressure
High90 °F (Aug 12, 4:54 PM)100% (Aug 13, 7:54 AM)30.26 "Hg (Aug 13, 7:54 AM)
Low54 °F (Aug 22, 5:54 AM)46% (Aug 22, 3:54 PM)29.63 "Hg (Aug 20, 4:54 PM)
Average73 °F87%30.00 "Hg
* Reported Aug 12 11:54 AM — Aug 27 11:54 AM, Lafayette, Weather by CustomWeather, © 2016

Note: Actual official high and low records may vary slightly from our data, if they occured in-between our weather recording intervals... More about our weather records

Advertising

Lafayette Weather History for the Previous 24 Hours

Scroll right to see more
 ConditionsComfort  
Time TempWeatherWind HumidityBarometerVisibility
11:54 AM
Sat, Aug 27
78 °FPassing clouds.3 mph84%30.08 "Hg10 mi
10:54 AM75 °FCloudy.5 mph94%30.09 "Hg10 mi
9:54 AM73 °FScattered clouds.3 mph97%30.09 "Hg8 mi
8:57 AM70 °FStrong thunderstorms. Fog.No wind100%30.11 "Hg1 mi
7:54 AM70 °FPassing clouds.No wind100%30.09 "Hg10 mi
6:54 AM69 °FClear.5 mph100%30.05 "Hg9 mi
5:54 AM71 °FPassing clouds.No wind96%30.04 "Hg10 mi
4:54 AM70 °FClear.6 mph100%30.03 "Hg10 mi
3:54 AM71 °FClear.3 mph96%30.05 "Hg10 mi
2:54 AM71 °FPassing clouds.No wind93%30.06 "Hg10 mi
1:54 AM71 °FClear.3 mph96%30.07 "Hg10 mi
12:54 AM72 °FClear.6 mph100%30.06 "Hg10 mi
11:54 PM
Fri, Aug 26
73 °FClear.7 mph100%30.06 "Hg8 mi
10:54 PM73 °FFog.3 mph100%30.08 "Hg5 mi
9:54 PM74 °FPassing clouds.No wind100%30.09 "Hg8 mi
8:54 PM74 °FScattered clouds.3 mph100%30.10 "Hg8 mi
7:54 PM76 °FLight rain. Mostly cloudy.3 mph94%30.07 "Hg8 mi
6:54 PM78 °FPassing clouds.6 mph82%30.05 "Hg10 mi
5:54 PM79 °FSunny.5 mph82%30.06 "Hg10 mi
4:54 PM80 °FPassing clouds.3 mph79%30.07 "Hg10 mi
3:54 PM82 °FPartly sunny.6 mph72%30.06 "Hg10 mi
2:54 PM84 °FScattered clouds.No wind70%30.09 "Hg10 mi
1:54 PM82 °FScattered clouds.5 mph72%30.09 "Hg10 mi
Weather by CustomWeather, © 2016

See weather overviewHow to use our weather pages